Find Starlink 11233

NORAD ID: 61061 Int'l Des: 2024-164 Owner: SPXS Country: US Constellation: starlink operational
LEOCIRCULAR

リアルタイム位置

3D地球を読み込み中...

Starlink 11233について

説明を読み込み中...

次回通過

Passes for default location (London). Set your location on the main map for personalized predictions.

高度履歴

Loading altitude history...

軌道要素

1 61061U 24164M 26127.68908150 .00001507 00000-0 17282-4 0 9993
2 61061 53.1591 20.5514 0000876 67.9084 292.2026 15.69724856 94685
Epoch: May 7, 2026 • Age: 10 hours

現在のステータス

高度 359.9 km
速度 7.70 km/s
衛星直下点 13.27°N, 73.52°W
打ち上げ日 Sep 13, 2024
運用期間 1.6 years
タイプ internet

技術仕様

分類 Payload
質量 960.00 kg
乾燥質量 910.00 kg
総質量 960.00 kg
長さ 0.30 m
直径 4.10 m
スパン 29.00 m
形状 Box + pan
製造者 SPXS
バスタイプ Starlink V2MD
フェーズステータス In Orbit
所有者/国 SPXS/US

Most Searched